This demonstration page uses our WeatherBlox Daily Observations layout. Learn more.

Left ArrowRight Arrow

38.88101, -77.10428

Hourly Observations for March 9, 2019

Temp ( °F °C ) Dew Point ( °F °C ) Humidity (%) Winds ( mph kmh ) Pressure ( in mb ) Visibility ( mi km ) Precip ( " mm )
12:52 am 00:52 Cloudy 37 2.8 33 0.6 86 86 Calm 30.23 1024 8 12.87472 0 0
1:42 am 01:42 Cloudy with Mist and Fog 37 2.8 33 0.6 86 86 N 6 9 30.24 1024 6 9.65604 0 0
1:52 am 01:52 Cloudy with Mist and Fog 37 2.8 33 0.6 86 86 NNE 5 7 30.23 1024 5 8.0467 0 0
2:06 am 02:06 Cloudy 37 2.8 32 0 82 82 NNW 7 11 30.24 1024 7 11.26538 0 0
2:50 am 02:50 Partly Cloudy 36 2 30 -1 81 81 NNW 5 7 30.23 1024 10 16.0934 0 0
2:52 am 02:52 Partly Cloudy 36 2.2 31 -0.6 82 82 NNW 5 7 30.23 1024 10 16.0934 0 0
3:48 am 03:48 Cloudy 36 2 32 0 87 87 NNW 7 11 30.24 1024 7 11.26538 0 0
3:52 am 03:52 Cloudy 36 2.2 32 0 86 86 NNW 6 9 30.23 1024 7 11.26538 0 0
4:19 am 04:19 Cloudy with Mist and Fog 36 2.2 32 0 86 86 N 3 6 30.26 1025 5 8.0467 0 0
4:26 am 04:26 Cloudy with Mist and Fog 36 2.2 32 0 86 86 N 3 6 30.26 1025 5 8.0467 0 0
4:47 am 04:47 Cloudy with Mist and Fog 36 2 32 0 87 87 NNW 6 9 30.27 1025 6 9.65604 0 0
4:52 am 04:52 Cloudy 36 2.2 32 0 86 86 NNW 6 9 30.27 1025 7 11.26538 0 0
5:16 am 05:16 Cloudy with Mist and Fog 36 2.2 33 0.6 89 89 NNE 3 6 30.28 1025 6 9.65604 0 0
5:26 am 05:26 Cloudy 36 2.2 32 0 86 86 ENE 5 7 30.28 1025 7 11.26538 0 0
5:52 am 05:52 Cloudy 36 2.2 32 0 86 86 ENE 6 9 30.28 1026 7 11.26538 0 0
5:56 am 05:56 Cloudy 36 2.2 32 0 86 86 ENE 7 11 30.29 1026 7 11.26538 0 0
6:52 am 06:52 Cloudy with Mist and Fog 36 2.2 32 0 86 86 ENE 8 13 30.28 1026 5 8.0467 0 0
7:52 am 07:52 Cloudy 37 2.8 32 0 82 82 ENE 7 11 30.31 1026 8 12.87472 0 0
8:52 am 08:52 Cloudy 39 3.9 33 0.6 79 79 NE 6 9 30.32 1027 10 16.0934 0 0
9:52 am 09:52 Cloudy 40 4.4 33 0.6 77 77 NE 7 11 30.33 1027 10 16.0934 0 0
10:52 am 10:52 Cloudy 41 5 32 0 70 70 NE 6 9 30.34 1027 10 16.0934 0 0
11:52 am 11:52 Cloudy 41 5 32 0 70 70 VRB 5 7 30.35 1028 10 16.0934 0 0
12:52 pm 12:52 Cloudy 42 5.6 32 0 68 68 Calm 30.32 1027 10 16.0934 0 0
1:52 pm 13:52 Cloudy 43 6.1 32 0 65 65 SSE 5 7 30.31 1026 10 16.0934 0 0
2:52 pm 14:52 Cloudy 42 5.6 34 1.1 73 73 S 9 15 30.3 1026 10 16.0934 0 0
3:52 pm 15:52 Cloudy 43 6.1 33 0.6 68 68 Calm 30.31 1026 10 16.0934 0 0
4:52 pm 16:52 Cloudy 42 5.6 33 0.6 71 71 ESE 8 13 30.31 1026 10 16.0934 0 0
5:52 pm 17:52 Cloudy 41 5 33 0.6 73 73 E 10 17 30.28 1025 10 16.0934 0 0
6:52 pm 18:52 Cloudy 41 5 32 0 70 70 SE 8 13 30.29 1026 10 16.0934 0 0
7:52 pm 19:52 Cloudy 40 4.4 32 0 73 73 SE 5 7 30.29 1026 10 16.0934 0 0
8:52 pm 20:52 Cloudy 40 4.4 33 0.6 77 77 SE 6 9 30.26 1025 10 16.0934 0 0
9:38 pm 21:38 Cloudy 40 4.4 33 0.6 77 77 SE 6 9 30.28 1025 10 16.0934 0 0
9:44 pm 21:44 Cloudy 40 4.4 33 0.6 77 77 E 7 11 30.27 1025 10 16.0934 0 0
9:52 pm 21:52 Cloudy 40 4.4 33 0.6 77 77 E 8 13 30.25 1025 10 16.0934 0 0
10:38 pm 22:38 Cloudy with Light Rain 40 4.4 33 0.6 77 77 SE 6 9 30.25 1024 10 16.0934 0 0.0254
10:52 pm 22:52 Cloudy with Light Rain 40 4.4 33 0.6 77 77 SE 5 7 30.24 1024 10 16.0934 0 0.0254
11:28 pm 23:28 Cloudy with Light Rain 40 4.4 35 1.7 83 83 ESE 8 13 30.18 1022 6 9.65604 0.07 1.778
11:34 pm 23:34 Cloudy with Light Rain 40 4.4 35 1.7 83 83 VRB 3 6 30.2 1023 9 14.48406 0.07 1.778
11:45 pm 23:45 Cloudy 40 4.4 35 1.7 83 83 SSW 7 11 30.23 1024 10 16.0934 0.07 1.778
11:52 pm 23:52 Cloudy 40 4.4 35 1.7 83 83 SSW 9 15 30.23 1024 10 16.0934 0.07 1.778

Powered by AerisWeather